Content
SEND FEEDBACK

Daily
Averages
Monthly
Summary
Mexico

CANCUN, QUINTANA ROO


Home > North America > Mexico > Quintana Roo
Elevation: 9 meters     Latitude: 21 09N     Longitude: 086 49W

WEATHER
 
SELECT A DAY
Number of Records: 163,905;   Date Range: 1/1/95 - 8/10/14
 
SHARE

PRINT THIS DATA

[ ← Previous Day ]
WEATHER ALMANAC - 3 JANUARY, 2014
[ Next Day → ]
[ °F ]   °C
Weather ElementAverageHighLow
Temperature22.8 °C27 °C (9:45 am)21 °C (3:47 am)
Dewpoint20.8 °C22 °C (10:46 am)20 °C (4:46 am)
Humidity88.5 %100 % (3:47 am)69 % (8:47 am)
Barometer1015.9 hPa1017.9 hPa (9:45 pm)1013.9 hPa (2:48 am)
Wind Speed11.7 km/h25.9 km/h (1:17 pm)
Wind Gust37 km/h (5:49 pm)
Weather ElementAverage
Visibility8.9 km
Wind DirectionENE (72.6 °)

Weather ElementTotal
Precipitation---
Cooling Degree Days5.7 (Base 18.3)
Growing Degree Days14 (Base 10)
Averaged from 27 records on 3 January, 2014
WEATHER CONDITIONS BREAKOUT
WIND DIRECTION BREAKOUT
WEATHER BY HOUR - 3 JANUARY, 2014
[ °F ]   °C
Local TimeTemperatureDewpointHumidityBarometerVisibilityWind DirectionWind SpeedGust SpeedPrecipitationEventsConditions
1:44 AM22 °C21 °C94 %1015.2 hPa9.7 kmCalmMostly Cloudy
2:48 AM22 °C21 °C94 %1013.9 hPa9.7 kmNNW (340°)9.3 km/hMostly Cloudy
3:47 AM21 °C21 °C100 %1015.2 hPa9.7 kmCalmMostly Cloudy
4:46 AM21 °C20 °C94 %1015.2 hPa9.7 kmNNW (340°)9.3 km/hMostly Cloudy
5:46 AM21 °C20 °C94 %1014.9 hPa9.7 kmCalmMostly Cloudy
6:45 AM21 °C20 °C94 %1015.6 hPa11.3 kmNorth (350°)9.3 km/hScattered Clouds
7:46 AM23 °C21 °C88 %1016.3 hPa11.3 kmNNE (30°)5.6 km/hMostly Cloudy
8:47 AM26 °C20 °C69 %1016.3 hPa11.3 kmNE (50°)14.8 km/hScattered Clouds
9:45 AM27 °C21 °C70 %1016.9 hPa11.3 kmENE (60°)16.7 km/hMostly Cloudy
10:46 AM27 °C22 °C74 %1016.9 hPa11.3 kmNE (50°)11.1 km/hMostly Cloudy
11:43 AM23 °C22 °C94 %1015.9 hPa9.7 kmNE (40°)14.8 km/hMostly Cloudy
12:45 PM24 °C22 °C89 %1015.6 hPa9.7 kmNNE (20°)7.4 km/hOvercast
12:52 PM23 °C22 °C94 %1015.6 hPa6.4 kmNE (50°)14.8 km/hRainRain
12:58 PM22 °C21 °C94 %1015.6 hPa3.2 kmNE (50°)13 km/hRainHeavy Rain
1:17 PM22 °C21 °C94 %1015.2 hPa0.8 kmEast (90°)25.9 km/hRainHeavy Rain
1:44 PM22 °C21 °C94 %1015.2 hPa3.2 kmNE (40°)11.1 km/hRainRain
2:28 PM22 °C22 °C100 %1015.2 hPa8 kmNNE (30°)14.8 km/hRainLight Rain
2:43 PM23 °C21 °C88 %1014.6 hPa8 kmNE (40°)14.8 km/hRainLight Rain
3:40 PM23 °C21 °C88 %1015.6 hPa9.7 kmNE (40°)13 km/hOvercast
4:40 PM23 °C21 °C88 %1015.9 hPa9.7 kmNE (40°)16.7 km/hOvercast
5:49 PM22 °C20 °C88 %1015.9 hPa8 kmNE (40°)18.5 km/h37 km/hRainLight Rain
6:47 PM23 °C20 °C83 %1016.9 hPa9.7 kmNE (40°)16.7 km/hOvercast
7:46 PM23 °C20 °C83 %1017.3 hPa9.7 kmNE (50°)13 km/hMostly Cloudy
8:47 PM23 °C20 °C83 %1017.6 hPa9.7 kmNE (40°)14.8 km/hMostly Cloudy
9:45 PM22 °C20 °C88 %1017.9 hPa9.7 kmNE (40°)13 km/hRainLight Rain
10:46 PM22 °C20 °C88 %1017.6 hPa9.7 kmNE (50°)11.1 km/hOvercast
11:47 PM23 °C20 °C83 %1016.3 hPa9.7 kmNE (40°)9.3 km/hOvercast
Hourly data recorded from MMUN, located 0 kilometers away from Cancun, Quintana Roo







STORIES FROM OUR PARTNERS